Regional Weather Roundup
Issued by NWS

Home | Current Version | Previous Version | Graphics & Text | Print | Product List | Glossary Off
Versions: 1 2 3 4 5 6 7 8 9 10 11 12 13 14 15 16 17 18 19 20 21 22 23 24 25 26 27 28 29 30 31 32 33 34 35 36 37 38 39 40 41 42 43 44 45 46 47 48 49 50

000
ASUS43 KLMK 260810
RWRKY
KENTUCKY REGIONAL WEATHER ROUNDUP
NATIONAL WEATHER SERVICE LOUISVILLE KY
300 AM EST FRI DEC 26 2014

NOTE "FAIR" INDICATES FEW OR NO CLOUDS BELOW 12,000 FEET
WITH NO SIGNIFICANT WEATHER AND/OR OBSTRUCTIONS TO VISIBILITY.

KYZ001>023-026-027-061>063-070>075-260900-
WESTERN AND SOUTH CENTRAL KENTUCKY

CITY           SKY/WX    TMP DP  RH WIND       PRES   REMARKS
PADUCAH        CLEAR     40  34  79 S6        30.16R
HENDERSON      CLEAR     37  30  75 S6        30.17R WCI  33
OWENSBORO      CLEAR     37  33  85 S7        30.20R WCI  31
HOPKINSVILLE   CLEAR     35  33  90 SE3       30.20R
BOWLING GREEN  CLEAR     29  26  89 CALM      30.23R
GLASGOW        CLEAR     33  33 100 CALM      30.22S
$$

KYZ024-025-028>034-038-045-046-053-260900-
NORTH CENTRAL KENTUCKY

CITY           SKY/WX    TMP DP  RH WIND       PRES   REMARKS
LOUISVILLE/SDF PTCLDY    33  30  88 SE7       30.21R WCI  27
LOUISVILLE/LOU CLEAR     33  30  88 SE5       30.22R WCI  29
FORT KNOX      CLEAR     33  31  90 S5        30.20R WCI  29
$$

KYZ035>037-039>044-047>052-055>060-089>105-260900-
NORTHEAST KENTUCKY

CITY           SKY/WX    TMP DP  RH WIND       PRES   REMARKS
LEXINGTON      CLEAR     33  30  88 S8        30.22R WCI  26
COVINGTON      CLEAR     34  27  75 CALM      30.20R
FRANKFORT      CLEAR     31  28  89 S6        30.21R WCI  25
$$

KYZ054-064>069-076>088-106>120-260900-
SOUTHEAST KENTUCKY

CITY           SKY/WX    TMP DP  RH WIND       PRES   REMARKS
JACKSON        PTCLDY    33  29  85 S3        30.22R
LONDON         PTCLDY    29  24  82 W3        30.24R
SOMERSET       CLEAR     28  28 100 CALM      30.27R
MIDDLESBORO    PTCLDY    28  28  99 CALM      30.27R
MONTICELLO     SUNNY     26  25  96 CALM      30.27R
$$



USA.gov is the U.S. government's official web portal to all federal, state and local government web resources and services.